Weather in Zhitnoye

Russia / Astrakhan Oblast     45°48′05″N   47°41′20″E
temp.,
°C
wind,
m/s
gust,
m/s
humid.,
%
clouds,
%
prec.,
mm/h
press.,
hPa
HPBL,
m
18 september, sat
sat1801:00+16s224983 0.0 1018113
04:00+14e2258100 0.0 101829
07:00+14ene3443100 0.0 1018125
10:00+15e234483 0.0 1018139
13:00+21se434118 0.0 10181549
16:00+20se55445 0.0 10171028
19:00+17se57620 0.0 1018250
22:00+16ese46685 0.0 1019130
19 september, sun
sun1901:00+15ese46685 0.0 1018121
04:00+14e4766100 0.0 1018122
07:00+15e4861100 0.0 1019212
10:00+20ese8947100 0.0 10191124
13:00+21ese8941100 0.0 10181053
16:00+20ese894017 0.0 1018942
19:00+17e6105556 0.0 1017480
22:00+17e6126413 0.0 1017387
20 september, mon
mon2001:00+17e6126719 0.0 1016375
04:00+17e6127098 0.0 1014339
07:00+17e5117472 0.0 1014285
10:00+23ese565197 0.0 1014599
13:00+24se776280 0.0 1013689
16:00+22se6773100 0.0 1013514
19:00+19se3587100 0.0 1014181
22:00+19se2389100 0.0 101458
21 september, tue
tue2101:00+18se22905 0.0 101519
04:00+18se228824 0.0 101512
07:00+18e228493 0.0 101525
10:00+23se4557100 0.0 1016480
13:00+25se5640100 0.0 1015805
16:00+23se68425 0.0 1015624
19:00+19ese5964100 0.0 1014251
22:00+19ese596659 0.0 1014252
22 september, wed
wed2201:00+19sse3371100 0.0 101343
04:00+18sw2270100 0.0 101324
07:00+18wnw3475100 0.6 101487
10:00+21nw5665100 1.1 1015589
13:00+23nnw6651100 0.0 1015994
16:00+21nnw553998 0.0 1015774
19:00+17n475458 0.0 1016198
22:00+17nnw3568100 0.0 1016245